[[{"header":{"parameterUnit":"m.s-1","parameterCategory":1,"la1":30.2991,"la2":30.254,"lo1":-89.0895,"lo2":-89.0444,"dx":0.0017,"dy":0.0017,"nx":28,"ny":28,"refTime":"2023-02-06T09:00:00:Z","depth":0,"parameterNumber":2,"parameterNumberName":"U-component_of_WINDS"},"data":[0,0,0,0,0,0,0,0,0,0,0,0,0,0,0,0,0,0,0,0,0,0,0,0,0,0,0,0,0,0,0,0,0,0,0,0,0,0,0,0,0,0,0,0,0,0,0,0,0,0,0,0,0,0,0,0,0,0,-2.8326,-2.8326,0,-2.8281,-2.828,-2.828,-2.821,-2.8208,-2.8207,-2.8206,-2.8161,-2.8161,-2.8161,0,0,0,0,0,0,0,0,0,0,0,0,0,-2.8358,-2.8357,-2.8326,-2.8326,-2.8325,-2.8281,-2.828,-2.828,-2.821,-2.8208,-2.8207,-2.8205,-2.8161,-2.8161,-2.8161,0,0,0,0,0,0,0,0,0,0,0,0,0,-2.8331,-2.8357,-2.8326,-2.8285,-2.8281,-2.8281,-2.828,-2.8279,-2.821,-2.8208,-2.8206,-2.8204,-2.8161,-2.8161,-2.8161,-2.8199,0,0,-2.8161,-2.8161,0,0,0,0,0,0,0,0,-2.8333,-2.833,-2.8292,-2.8288,-2.8283,-2.8249,-2.8275,-2.8252,-2.8211,-2.8237,-2.8206,-2.8204,-2.8192,-2.8189,-2.8185,-2.8197,-2.8195,-2.8161,-2.8161,-2.8161,-2.8161,0,0,0,0,0,0,0,-2.8335,-2.8332,-2.8308,-2.8291,-2.8286,-2.827,-2.8264,-2.827,-2.8226,-2.8234,-2.8229,-2.8225,-2.8189,-2.8185,-2.8183,-2.8194,-2.8161,-2.8161,-2.8161,-2.8161,-2.8239,-2.8241,0,0,0,0,0,0,-2.8342,-2.8334,-2.831,-2.8307,-2.8304,-2.8271,-2.8265,-2.8262,-2.8225,-2.8218,-2.8226,-2.8222,-2.8186,-2.8183,-2.8182,-2.8225,-2.8161,-2.8161,-2.8161,-2.8237,-2.824,-2.8242,0,0,0,0,0,0,-2.8343,-2.8341,-2.8311,-2.8319,-2.8314,-2.8273,-2.827,-2.8262,-2.8257,-2.8219,-2.8211,-2.823,-2.8184,-2.8182,-2.8196,-2.8223,-2.8161,-2.8161,-2.8235,-2.8238,-2.8241,-2.8312,0,0,0,0,0,0,-2.8344,-2.8342,-2.8354,-2.832,-2.8314,-2.8325,-2.8272,-2.8262,-2.8257,-2.8251,-2.822,-2.8214,-2.8183,-2.8196,-2.8196,-2.8222,-2.8161,-2.8232,-2.8236,-2.824,-2.8307,-2.8318,-2.8326,0,0,0,0,0,-2.8346,-2.8375,-2.8355,-2.8352,-2.8328,-2.8327,-2.8323,-2.8287,-2.826,-2.8273,-2.8249,-2.8215,-2.8221,-2.8198,-2.8197,-2.8223,-2.823,-2.8235,-2.824,-2.8303,-2.8316,-2.8326,0,0,0,0,0,0,-2.8412,-2.837,-2.8346,-2.8365,-2.835,-2.8315,-2.8329,-2.83,-2.8293,-2.8287,-2.8243,-2.8236,-2.8257,-2.8242,-2.8218,-2.8261,-2.822,-2.8225,-2.8269,-2.8281,-2.829,-2.8293,-2.8161,0,0,0,0,0,-2.843,-2.8431,-2.8394,-2.8414,-2.8408,-2.8371,-2.8368,-2.8342,-2.8325,-2.8318,-2.8295,-2.8281,-2.828,-2.8279,-2.8276,-2.8306,-2.83,-2.8324,-2.8333,-2.8341,-2.8346,-2.8364,-2.8375,-2.8257,-2.8257,-2.8257,0,0,-2.8464,-2.8441,-2.8444,-2.8427,-2.8412,-2.8416,-2.8365,-2.8371,-2.8374,-2.8319,-2.8331,-2.8315,-2.8296,-2.8319,-2.8328,-2.8307,-2.8378,-2.8347,-2.8354,-2.8354,-2.837,-2.8381,-2.8391,-2.8261,-2.826,-2.826,0,0,-2.8529,-2.8511,-2.8528,-2.8515,-2.8494,-2.847,-2.8474,-2.8444,-2.8431,-2.8443,-2.8403,-2.8408,-2.8406,-2.8395,-2.8389,-2.8458,-2.8427,-2.8458,-2.8507,-2.8525,-2.8534,-2.8542,-2.8569,-2.8578,-2.8463,-2.8463,-2.8463,0,-2.8575,-2.8578,-2.854,-2.8549,-2.8544,-2.8496,-2.8514,-2.8504,-2.8483,-2.8482,-2.8459,-2.8458,-2.8442,-2.8464,-2.8481,-2.8478,-2.8483,-2.846,-2.8536,-2.8544,-2.8551,-2.8575,-2.8585,-2.8467,-2.8466,-2.8466,-2.8466,0,-2.8637,-2.864,-2.8657,-2.8639,-2.8636,-2.8649,-2.8615,-2.8618,-2.8594,-2.8573,-2.8588,-2.8568,-2.8561,-2.8565,-2.854,-2.8585,-2.8573,-2.8544,-2.8502,-2.8567,-2.8589,-2.8598,-2.8473,-2.8471,-2.847,-2.8469,0,0,-2.8738,-2.8703,-2.8709,-2.8702,-2.8678,-2.8681,-2.8695,-2.8689,-2.8693,-2.8682,-2.8693,-2.8696,-2.867,-2.8664,-2.8639,-2.8655,-2.8714,-2.8624,-2.8623,-2.8643,-2.8765,-2.8786,-2.8798,-2.8694,-2.8696,-2.8697,-2.8767,0,-2.8798,-2.8818,-2.8787,-2.8814,-2.8819,-2.8776,-2.8789,-2.8777,-2.876,-2.8763,-2.8744,-2.8747,-2.8712,-2.8709,-2.8723,-2.8703,-2.8738,-2.8698,-2.8706,-2.8707,-2.8711,-2.8809,-2.8831,-2.8897,-2.8775,-2.8776,-2.8777,0,-2.887,-2.8864,-2.8892,-2.8871,-2.8872,-2.8883,-2.8877,-2.888,-2.8868,-2.8855,-2.8851,-2.8822,-2.8837,-2.8799,-2.882,-2.8794,-2.8796,-2.8788,-2.8789,-2.8788,-2.8745,-2.8811,-2.8917,-2.8928,-2.879,-2.8789,-2.8788,0,-2.8942,-2.8942,-2.8959,-2.8955,-2.893,-2.8939,-2.893,-2.8915,-2.8915,-2.8912,-2.8912,-2.891,-2.8909,-2.8909,-2.8882,-2.8856,-2.8908,-2.8866,-2.8899,-2.89,-2.891,-2.891,-2.9019,-2.8912,-2.8912,-2.8912,-2.8912,0,-2.9012,-2.9032,-2.8992,-2.9003,-2.9025,-2.8991,-2.9014,-2.9001,-2.8989,-2.8999,-2.8963,-2.8973,-2.8936,-2.8943,-2.8923,-2.8945,-2.8945,-2.8936,-2.893,-2.8939,-2.894,-2.8939,-2.8934,-2.8914,-2.8914,-2.8913,-2.8913,0,-2.9096,-2.907,-2.9087,-2.9063,-2.9058,-2.9076,-2.9056,-2.9067,-2.905,-2.9062,-2.9064,-2.9036,-2.9043,-2.9017,-2.9019,-2.9006,-2.9039,-2.9026,-2.9043,-2.9039,-2.9074,-2.9071,-2.9185,-2.92,-2.9084,-2.9085,-2.9086,0,-2.9141,-2.9156,-2.9135,-2.9139,-2.9132,-2.9138,-2.9139,-2.9108,-2.9111,-2.9101,-2.9113,-2.9118,-2.9119,-2.9133,-2.9114,-2.9117,-2.9104,-2.9144,-2.9104,-2.9114,-2.9106,-2.9106,-2.9108,-2.9152,-2.9153,-2.9155,-2.9155,0,-2.9226,-2.9214,-2.9216,-2.9216,-2.9218,-2.9216,-2.9211,-2.9217,-2.9184,-2.919,-2.9197,-2.9199,-2.9203,-2.9209,-2.9209,-2.9201,-2.9174,-2.9169,-2.9177,-2.9185,-2.9196,-2.9192,-2.9066,-2.9166,-2.9165,-2.9164,-2.9163,-2.9163,-2.9292,-2.9305,-2.9293,-2.9298,-2.9293,-2.9291,-2.93,-2.9286,-2.9291,-2.9292,-2.9274,-2.9286,-2.9278,-2.9276,-2.9271,-2.9282,-2.9263,-2.9274,-2.9277,-2.928,-2.9287,-2.9195,-2.9282,-2.9281,-2.9281,-2.9281,-2.928,0,-2.9376,-2.9368,-2.9373,-2.9369,-2.9375,-2.935,-2.9346,-2.9352,-2.9363,-2.9357,-2.9361,-2.9372,-2.9379,-2.9363,-2.9368,-2.938,-2.9368,-2.9382,-2.9381,-2.938,-2.9302,-2.9295,-2.9392,-2.9392,-2.9392,-2.9392,-2.9392,-2.9392,-2.942,-2.9441,-2.9429,-2.9448,-2.9439,-2.9451,-2.9451,-2.945,-2.9446,-2.946,-2.9466,-2.9456,-2.9448,-2.9453,-2.946,-2.9455,-2.9459,-2.9478,-2.9469,-2.9396,-2.9385,-2.9375,-2.9368,-2.9479,-2.9479,-2.9547,-2.9547,-2.9548]},{"header":{"parameterUnit":"m.s-1","parameterCategory":1,"la1":30.2991,"la2":30.254,"lo1":-89.0895,"lo2":-89.0444,"dx":0.0017,"dy":0.0017,"nx":28,"ny":28,"refTime":"2023-02-06T09:00:00:Z","depth":0,"parameterNumber":3,"parameterNumberName":"V-component_of_WINDS"},"data":[0,0,0,0,0,0,0,0,0,0,0,0,0,0,0,0,0,0,0,0,0,0,0,0,0,0,0,0,0,0,0,0,0,0,0,0,0,0,0,0,0,0,0,0,0,0,0,0,0,0,0,0,0,0,0,0,0,0,2.1579,2.1579,0,2.1588,2.1588,2.1588,2.1662,2.1664,2.1666,2.1668,2.167,2.1668,2.1667,0,0,0,0,0,0,0,0,0,0,0,0,0,2.1621,2.162,2.1579,2.1579,2.1579,2.1588,2.1588,2.1588,2.1662,2.1664,2.1667,2.1669,2.1671,2.1669,2.1667,0,0,0,0,0,0,0,0,0,0,0,0,0,2.1613,2.162,2.1579,2.1617,2.1621,2.1588,2.1588,2.1588,2.1662,2.1664,2.1667,2.167,2.1671,2.1669,2.1666,2.1595,0,0,2.1659,2.1658,0,0,0,0,0,0,0,0,2.1614,2.1612,2.1612,2.1615,2.1619,2.1627,2.1604,2.159,2.1661,2.1646,2.1668,2.1671,2.1653,2.1652,2.1648,2.1595,2.1595,2.1658,2.1657,2.1656,2.1655,0,0,0,0,0,0,0,2.1614,2.1612,2.1582,2.1611,2.1616,2.1633,2.1635,2.1602,2.1633,2.1647,2.1653,2.1653,2.1655,2.165,2.1648,2.1595,2.1659,2.1656,2.1655,2.1654,2.1487,2.1484,0,0,0,0,0,0,2.161,2.1612,2.1582,2.1583,2.1623,2.1629,2.1632,2.1621,2.1634,2.1639,2.1651,2.1657,2.1653,2.1651,2.1648,2.1567,2.1656,2.1654,2.1652,2.1489,2.1486,2.1483,0,0,0,0,0,0,2.1611,2.1607,2.1582,2.1599,2.1597,2.1626,2.1614,2.162,2.1615,2.1637,2.1642,2.164,2.1655,2.1652,2.1609,2.1568,2.1652,2.165,2.1493,2.1488,2.1484,2.1402,0,0,0,0,0,0,2.1612,2.1607,2.1581,2.1598,2.1596,2.1543,2.1611,2.1618,2.1611,2.1619,2.1628,2.1632,2.1657,2.1612,2.1606,2.1566,2.1648,2.1497,2.1491,2.1486,2.1408,2.1395,2.1384,0,0,0,0,0,2.1613,2.1555,2.1579,2.1575,2.1564,2.154,2.1539,2.1571,2.1607,2.1581,2.1596,2.1631,2.1574,2.1607,2.1601,2.1559,2.1499,2.1493,2.1486,2.1414,2.1398,2.1384,0,0,0,0,0,0,2.153,2.1558,2.1585,2.1531,2.1533,2.1553,2.1521,2.1553,2.1542,2.155,2.1588,2.1589,2.154,2.1546,2.1582,2.1492,2.1543,2.1535,2.149,2.1475,2.1463,2.1462,2.1646,0,0,0,0,0,2.1506,2.1486,2.1511,2.1461,2.1461,2.1491,2.1481,2.1506,2.1509,2.1509,2.1521,2.152,2.1502,2.1489,2.1473,2.141,2.1413,2.1379,2.1367,2.1357,2.1348,2.1316,2.1302,2.1461,2.1461,2.1461,0,0,2.1455,2.1468,2.1452,2.1445,2.145,2.1427,2.1491,2.1463,2.1446,2.1504,2.1465,2.1473,2.1475,2.1422,2.1399,2.1425,2.1306,2.1348,2.134,2.1337,2.1308,2.1293,2.1279,2.1457,2.1457,2.1458,0,0,2.135,2.1359,2.1319,2.1323,2.133,2.135,2.1341,2.1356,2.1365,2.1327,2.137,2.135,2.1318,2.1318,2.1314,2.1212,2.1245,2.1206,2.1141,2.111,2.1097,2.1086,2.105,2.1037,2.1198,2.1198,2.1198,0,2.1285,2.1255,2.1294,2.1264,2.126,2.1315,2.1274,2.1275,2.1275,2.127,2.13,2.1263,2.1268,2.1216,2.1192,2.1186,2.1176,2.1204,2.1096,2.1086,2.1076,2.1042,2.1028,2.1193,2.1194,2.1194,2.1195,0,2.1175,2.1153,2.1119,2.1122,2.1114,2.1078,2.1111,2.1098,2.1124,2.1141,2.1101,2.111,2.1098,2.1088,2.1111,2.1039,2.1055,2.109,2.1142,2.1055,2.1024,2.1011,2.1186,2.1188,2.1189,2.1191,0,0,2.1016,2.1043,2.103,2.1032,2.1045,2.1028,2.0996,2.0987,2.0974,2.0973,2.0947,2.092,2.0953,2.0948,2.0973,2.0945,2.0865,2.0984,2.0984,2.0961,2.0786,2.0759,2.0743,2.0887,2.0885,2.0883,2.0786,0,2.0915,2.0864,2.0899,2.0841,2.0821,2.0874,2.0846,2.085,2.0865,2.085,2.0866,2.0847,2.0892,2.0889,2.0865,2.088,2.083,2.0887,2.0861,2.086,2.0858,2.0727,2.0698,2.0606,2.0774,2.0772,2.077,0,2.0791,2.0788,2.0728,2.0748,2.074,2.0715,2.071,2.0695,2.0701,2.0714,2.071,2.0742,2.0711,2.0763,2.072,2.0759,2.075,2.0756,2.0754,2.0751,2.0809,2.072,2.0577,2.0563,2.0751,2.0753,2.0754,0,2.0681,2.0662,2.0624,2.0625,2.0646,2.0627,2.0634,2.0643,2.0636,2.0631,2.0627,2.0618,2.0612,2.0604,2.0633,2.0668,2.0586,2.064,2.0595,2.0594,2.0574,2.0574,2.0426,2.0569,2.0569,2.057,2.057,0,2.0565,2.0526,2.0576,2.0552,2.0511,2.0551,2.0508,2.0521,2.0529,2.0509,2.0553,2.0532,2.0572,2.0555,2.0578,2.0539,2.0536,2.0545,2.0551,2.054,2.0539,2.0534,2.0541,2.0566,2.0567,2.0568,2.0568,0,2.0434,2.0466,2.0429,2.0453,2.0458,2.0426,2.0446,2.0425,2.0445,2.0418,2.0414,2.0444,2.0427,2.0455,2.044,2.0455,2.0401,2.0418,2.04,2.0404,2.0357,2.0361,2.02,2.0181,2.0337,2.0335,2.0334,0,2.0358,2.033,2.0352,2.0343,2.0349,2.0333,2.0327,2.0366,2.0357,2.0364,2.0341,2.0329,2.032,2.0289,2.0309,2.0298,2.0314,2.0258,2.0312,2.0303,2.0312,2.0313,2.0311,2.0246,2.0244,2.0243,2.0242,0,2.0218,2.0236,2.0227,2.0223,2.0216,2.0214,2.0216,2.0205,2.0247,2.0235,2.0219,2.0213,2.0199,2.0185,2.018,2.0186,2.022,2.0225,2.0214,2.0202,2.0193,2.0197,2.0369,2.0228,2.0229,2.023,2.0231,2.0232,2.0112,2.0091,2.0104,2.0092,2.0098,2.0099,2.0081,2.01,2.0088,2.0082,2.0106,2.0085,2.0093,2.0089,2.0092,2.0075,2.0099,2.0083,2.0079,2.0074,2.0067,2.0197,2.0074,2.0075,2.0075,2.0075,2.0076,0,1.9975,1.9987,1.9976,1.9979,1.997,2.0006,2.001,2.0,1.9981,1.9987,1.9979,1.9961,1.9948,1.9968,1.9959,1.9941,1.9957,1.9937,1.9938,1.9939,2.0045,2.0056,1.9925,1.9925,1.9925,1.9925,1.9925,1.9925,1.9903,1.9868,1.9888,1.9857,1.9869,1.985,1.985,1.985,1.9856,1.9834,1.9825,1.9839,1.985,1.9843,1.9833,1.9839,1.9833,1.9808,1.9819,1.9917,1.9932,1.9946,1.9956,1.9806,1.9806,1.9714,1.9714,1.9713]}]]